ARG1240 SABE-SBSP

Flight info

Callsign ARG1240
Flight time N/A
Altitude 37000
Route KUKEN8 KUKEN UM654 GAMOT UZ68 DOLDI UM400 KOXAG UM540 ANISE
Aircraft A343/H-SDE2E3FGHIJ4J5M1RWXY/LB1D1

Departure

Time 2026-05-04 18:57
Airport Aeroparque Jorge Newbery (SABE)

Arrival

Time N/A
Airport Congonhas–Deputado Freitas Nobre Airport (SBSP)
Time Latitude Longitude Altitude Speed Heading
2026-05-04 18:11 -34.55666 -58.41559 57 ft 0 kts 65°
2026-05-04 18:40 -34.55667 -58.41562 29 ft 3 kts 65°
2026-05-04 18:41 -34.55675 -58.41584 28 ft 2 kts 65°
2026-05-04 18:41 -34.55685 -58.41606 29 ft 3 kts 40°
2026-05-04 18:41 -34.55701 -58.41615 27 ft 3 kts 343°
2026-05-04 18:41 -34.55717 -58.41602 29 ft 3 kts 309°
2026-05-04 18:42 -34.55727 -58.41586 27 ft 0 kts 303°
2026-05-04 18:45 -34.55727 -58.41587 27 ft 0 kts 303°
2026-05-04 18:45 -34.55722 -58.41596 28 ft 2 kts 303°
2026-05-04 18:45 -34.55712 -58.41615 27 ft 4 kts 303°
2026-05-04 18:45 -34.55695 -58.41646 27 ft 5 kts 303°
2026-05-04 18:46 -34.55674 -58.41685 29 ft 6 kts 304°
2026-05-04 18:46 -34.55647 -58.41733 29 ft 7 kts 305°
2026-05-04 18:46 -34.55615 -58.41788 29 ft 8 kts 305°
2026-05-04 18:46 -34.55608 -58.41822 29 ft 3 kts 266°
2026-05-04 18:47 -34.55614 -58.41836 29 ft 2 kts 239°
2026-05-04 18:47 -34.55624 -58.41845 29 ft 0 kts 217°
2026-05-04 18:52 -34.55625 -58.41846 29 ft 1 kts 217°
2026-05-04 18:52 -34.55641 -58.41861 29 ft 4 kts 217°
2026-05-04 18:52 -34.55658 -58.41876 29 ft 5 kts 215°
2026-05-04 18:52 -34.55692 -58.41904 29 ft 7 kts 212°
2026-05-04 18:53 -34.55738 -58.41899 28 ft 8 kts 149°
2026-05-04 18:53 -34.55779 -58.41837 28 ft 14 kts 126°
2026-05-04 18:53 -34.55858 -58.41697 28 ft 25 kts 124°
2026-05-04 18:53 -34.55956 -58.41520 28 ft 25 kts 124°
2026-05-04 18:54 -34.56054 -58.41343 29 ft 25 kts 124°
2026-05-04 18:54 -34.56153 -58.41165 31 ft 25 kts 124°
2026-05-04 18:54 -34.56252 -58.40988 30 ft 26 kts 124°
2026-05-04 18:54 -34.56353 -58.40806 30 ft 26 kts 124°
2026-05-04 18:55 -34.56456 -58.40619 29 ft 25 kts 124°
2026-05-04 18:55 -34.56510 -58.40425 29 ft 9 kts 118°
2026-05-04 18:55 -34.56547 -58.40412 29 ft 4 kts 201°
2026-05-04 18:56 -34.56554 -58.40432 29 ft 2 kts 268°
2026-05-04 18:56 -34.56540 -58.40472 29 ft 11 kts 300°
2026-05-04 18:56 -34.56494 -58.40555 29 ft 16 kts 304°
2026-05-04 18:56 -34.56359 -58.40800 30 ft 63 kts 304°
2026-05-04 18:57 -34.56006 -58.41435 29 ft 117 kts 304°
2026-05-04 18:57 -34.55466 -58.42407 100 ft 155 kts 303°
2026-05-04 18:57 -34.54902 -58.43531 624 ft 158 kts 296°
2026-05-04 18:57 -34.54410 -58.44702 1071 ft 162 kts 326°
2026-05-04 18:58 -34.53307 -58.44860 1635 ft 173 kts 18°
2026-05-04 18:58 -34.52459 -58.43794 2230 ft 186 kts 62°
2026-05-04 18:58 -34.51768 -58.42489 2846 ft 186 kts 36°
2026-05-04 18:58 -34.50714 -58.41519 3454 ft 195 kts 28°
2026-05-04 18:59 -34.49470 -58.40677 3887 ft 214 kts 23°
2026-05-04 18:59 -34.48069 -58.39796 4263 ft 241 kts 23°
2026-05-04 18:59 -34.46522 -58.38841 4924 ft 256 kts 22°
2026-05-04 18:59 -34.44935 -58.37865 5793 ft 262 kts 22°
2026-05-04 19:00 -34.43291 -58.36859 6658 ft 267 kts 22°
2026-05-04 19:00 -34.41608 -58.35834 7482 ft 275 kts 22°
2026-05-04 19:00 -34.39876 -58.34782 8298 ft 281 kts 23°
2026-05-04 19:00 -34.38109 -58.33711 9144 ft 287 kts 24°
2026-05-04 19:01 -34.36304 -58.32616 9946 ft 294 kts 24°
2026-05-04 19:01 -34.34433 -58.31484 10433 ft 310 kts 23°
2026-05-04 19:01 -34.32434 -58.30279 10763 ft 331 kts 23°
2026-05-04 19:01 -34.30320 -58.29004 11137 ft 347 kts 23°
2026-05-04 19:02 -34.28128 -58.27680 11679 ft 358 kts 22°
2026-05-04 19:02 -34.25877 -58.26320 12285 ft 366 kts 22°
2026-05-04 19:02 -34.23577 -58.24931 12898 ft 373 kts 21°
2026-05-04 19:02 -34.21238 -58.23520 13579 ft 378 kts 21°
2026-05-04 19:03 -34.18874 -58.22064 14196 ft 386 kts 24°
2026-05-04 19:03 -34.16560 -58.20349 14814 ft 394 kts 28°
2026-05-04 19:03 -34.14291 -58.18447 15479 ft 399 kts 31°
2026-05-04 19:03 -34.12038 -58.16445 16121 ft 405 kts 32°
2026-05-04 19:04 -34.09767 -58.14389 16730 ft 411 kts 32°
2026-05-04 19:04 -34.07462 -58.12305 17341 ft 416 kts 32°
2026-05-04 19:04 -34.05154 -58.10238 17966 ft 421 kts 32°
2026-05-04 19:04 -34.02779 -58.08131 18544 ft 426 kts 32°
2026-05-04 19:05 -34.00373 -58.06011 19079 ft 431 kts 31°
2026-05-04 19:05 -33.97938 -58.03876 19633 ft 435 kts 31°
2026-05-04 19:05 -33.95484 -58.01731 20194 ft 439 kts 31°
2026-05-04 19:05 -33.92998 -57.99561 20711 ft 443 kts 31°
2026-05-04 19:06 -33.90496 -57.97377 21286 ft 446 kts 32°
2026-05-04 19:06 -33.87974 -57.95176 21816 ft 450 kts 31°
2026-05-04 19:06 -33.85427 -57.92956 22344 ft 454 kts 31°
2026-05-04 19:06 -33.82858 -57.90718 22887 ft 457 kts 31°
2026-05-04 19:07 -33.80272 -57.88465 23390 ft 461 kts 31°
2026-05-04 19:07 -33.77662 -57.86194 23823 ft 465 kts 31°
2026-05-04 19:07 -33.75030 -57.83906 24227 ft 469 kts 31°
2026-05-04 19:07 -33.72379 -57.81601 24650 ft 472 kts 31°
2026-05-04 19:08 -33.69708 -57.79282 25051 ft 475 kts 31°
2026-05-04 19:08 -33.67054 -57.76979 25444 ft 479 kts 31°
2026-05-04 19:08 -33.64347 -57.74632 25828 ft 482 kts 32°
2026-05-04 19:08 -33.61624 -57.72270 26219 ft 484 kts 32°
2026-05-04 19:09 -33.58886 -57.69896 26620 ft 487 kts 32°
2026-05-04 19:09 -33.56130 -57.67513 26994 ft 490 kts 32°
2026-05-04 19:09 -33.53357 -57.65118 27357 ft 493 kts 32°
2026-05-04 19:09 -33.50567 -57.62710 27721 ft 496 kts 32°
2026-05-04 19:10 -33.47758 -57.60288 28077 ft 499 kts 32°
2026-05-04 19:10 -33.44933 -57.57853 28425 ft 502 kts 32°
2026-05-04 19:10 -33.42092 -57.55406 28774 ft 505 kts 32°
2026-05-04 19:10 -33.39234 -57.52945 29102 ft 507 kts 32°
2026-05-04 19:11 -33.36361 -57.50474 29431 ft 510 kts 32°
2026-05-04 19:11 -33.33473 -57.47992 29752 ft 513 kts 32°
2026-05-04 19:11 -33.30607 -57.45531 30062 ft 515 kts 32°
2026-05-04 19:11 -33.27690 -57.43028 30322 ft 518 kts 32°
2026-05-04 19:12 -33.24756 -57.40514 30581 ft 520 kts 32°
2026-05-04 19:12 -33.18843 -57.35452 31067 ft 526 kts 32°
2026-05-04 19:12 -33.15857 -57.32899 31317 ft 528 kts 32°
2026-05-04 19:13 -33.12863 -57.30341 31552 ft 531 kts 32°
2026-05-04 19:13 -33.09856 -57.27774 31809 ft 532 kts 32°
2026-05-04 19:13 -33.06844 -57.25205 32135 ft 532 kts 32°
2026-05-04 19:13 -33.03832 -57.22637 32452 ft 533 kts 32°
2026-05-04 19:14 -33.00818 -57.20071 32769 ft 532 kts 32°
2026-05-04 19:14 -32.97847 -57.17542 33099 ft 532 kts 32°
2026-05-04 19:14 -32.94833 -57.14980 33399 ft 533 kts 32°
2026-05-04 19:14 -32.91814 -57.12418 33688 ft 533 kts 32°
2026-05-04 19:15 -32.88794 -57.09855 33959 ft 534 kts 32°
2026-05-04 19:15 -32.85768 -57.07291 34204 ft 534 kts 32°
2026-05-04 19:15 -32.82744 -57.04729 34499 ft 533 kts 32°
2026-05-04 19:15 -32.79723 -57.02173 34782 ft 533 kts 31°
2026-05-04 19:16 -32.76706 -56.99621 35054 ft 532 kts 31°
2026-05-04 19:16 -32.73686 -56.97070 35319 ft 532 kts 31°
2026-05-04 19:16 -32.70676 -56.94528 35596 ft 530 kts 31°
2026-05-04 19:16 -32.67679 -56.92000 35885 ft 529 kts 31°
2026-05-04 19:17 -32.64675 -56.89468 36149 ft 529 kts 31°
2026-05-04 19:17 -32.61677 -56.86945 36403 ft 528 kts 31°
2026-05-04 19:17 -32.58685 -56.84429 36650 ft 528 kts 31°
2026-05-04 19:17 -32.55728 -56.81944 36854 ft 529 kts 31°
2026-05-04 19:18 -32.52720 -56.79420 37062 ft 529 kts 31°
2026-05-04 19:18 -32.49718 -56.76907 37325 ft 528 kts 31°
2026-05-04 19:18 -32.46721 -56.74394 37562 ft 528 kts 31°
2026-05-04 19:18 -32.43732 -56.71889 37795 ft 527 kts 31°
2026-05-04 19:19 -32.40736 -56.69381 38050 ft 526 kts 31°
2026-05-04 19:19 -32.37762 -56.66892 38356 ft 524 kts 31°
2026-05-04 19:19 -32.34785 -56.64404 38567 ft 523 kts 31°
2026-05-04 19:19 -32.31813 -56.61923 38752 ft 523 kts 31°
2026-05-04 19:20 -32.28841 -56.59445 38907 ft 523 kts 30°
2026-05-04 19:20 -32.22912 -56.54510 38947 ft 524 kts 30°
2026-05-04 19:21 -32.16960 -56.49560 38949 ft 523 kts 30°
2026-05-04 19:21 -32.11016 -56.44625 38936 ft 522 kts 30°
2026-05-04 19:22 -32.05079 -56.39701 38950 ft 521 kts 30°
2026-05-04 19:22 -31.99153 -56.34794 38952 ft 520 kts 30°
2026-05-04 19:23 -31.93229 -56.29898 38953 ft 520 kts 30°
2026-05-04 19:23 -31.87336 -56.25036 38955 ft 521 kts 30°
2026-05-04 19:24 -31.81402 -56.20148 38935 ft 521 kts 30°
2026-05-04 19:24 -31.75435 -56.15239 38958 ft 519 kts 30°
2026-05-04 19:25 -31.69562 -56.10417 38958 ft 519 kts 30°
2026-05-04 19:25 -31.63647 -56.05566 38958 ft 518 kts 30°
2026-05-04 19:26 -31.57733 -56.00725 38960 ft 518 kts 30°
2026-05-04 19:26 -31.51815 -55.95894 38959 ft 519 kts 30°
2026-05-04 19:27 -31.45889 -55.91054 38958 ft 519 kts 30°
2026-05-04 19:27 -31.39975 -55.86229 38972 ft 518 kts 30°
2026-05-04 19:28 -31.34057 -55.81412 38961 ft 518 kts 30°
2026-05-04 19:28 -31.28136 -55.76602 38959 ft 518 kts 30°
2026-05-04 19:29 -31.22244 -55.71822 38964 ft 519 kts 30°
2026-05-04 19:29 -31.16319 -55.67023 38965 ft 518 kts 30°
2026-05-04 19:30 -31.10402 -55.62238 38970 ft 517 kts 30°
2026-05-04 19:30 -31.04486 -55.57461 38970 ft 517 kts 30°
2026-05-04 19:31 -30.98566 -55.52686 38968 ft 517 kts 30°
2026-05-04 19:31 -30.92943 -55.47392 38979 ft 524 kts 41°
2026-05-04 19:32 -30.87884 -55.41274 38961 ft 525 kts 44°
2026-05-04 19:32 -30.82953 -55.35078 38977 ft 524 kts 44°
2026-05-04 19:33 -30.78007 -55.28865 38977 ft 524 kts 44°
2026-05-04 19:33 -30.73032 -55.22661 38977 ft 524 kts 44°
2026-05-04 19:34 -30.68050 -55.16475 38977 ft 525 kts 44°
2026-05-04 19:34 -30.63057 -55.10288 38981 ft 524 kts 44°
2026-05-04 19:35 -30.58067 -55.04112 38982 ft 525 kts 44°
2026-05-04 19:35 -30.53073 -54.97942 38983 ft 525 kts 44°
2026-05-04 19:36 -30.48072 -54.91772 38980 ft 525 kts 44°
2026-05-04 19:36 -30.43110 -54.85660 38985 ft 524 kts 44°
2026-05-04 19:37 -30.38114 -54.79519 38986 ft 524 kts 44°
2026-05-04 19:37 -30.33113 -54.73381 38989 ft 524 kts 44°
2026-05-04 19:38 -30.28108 -54.67245 38988 ft 524 kts 44°
2026-05-04 19:38 -30.23094 -54.61110 38991 ft 524 kts 44°
2026-05-04 19:39 -30.18084 -54.54987 38991 ft 524 kts 44°
2026-05-04 19:39 -30.13105 -54.48913 38980 ft 524 kts 44°
2026-05-04 19:40 -30.08097 -54.42815 38982 ft 523 kts 44°
2026-05-04 19:40 -30.03081 -54.36715 38996 ft 523 kts 44°
2026-05-04 19:41 -29.98066 -54.30628 38995 ft 523 kts 44°
2026-05-04 19:41 -29.93052 -54.24550 38999 ft 523 kts 44°
2026-05-04 19:42 -29.88032 -54.18474 38999 ft 524 kts 44°
2026-05-04 19:42 -29.83002 -54.12396 38983 ft 524 kts 44°
2026-05-04 19:43 -29.77970 -54.06324 39000 ft 524 kts 44°
2026-05-04 19:43 -29.72967 -54.00297 38998 ft 523 kts 44°
2026-05-04 19:44 -29.67939 -53.94248 38994 ft 523 kts 44°
2026-05-04 19:44 -29.62916 -53.88216 38998 ft 522 kts 44°
2026-05-04 19:45 -29.57885 -53.82183 39001 ft 522 kts 44°
2026-05-04 19:45 -29.52863 -53.76173 39013 ft 522 kts 44°
2026-05-04 19:46 -29.47829 -53.70154 39014 ft 523 kts 44°
2026-05-04 19:46 -29.42789 -53.64139 39020 ft 523 kts 44°
2026-05-04 19:47 -29.37782 -53.58171 39019 ft 522 kts 44°
2026-05-04 19:47 -29.32739 -53.52170 39023 ft 522 kts 44°
2026-05-04 19:48 -29.27701 -53.46184 39021 ft 522 kts 44°
2026-05-04 19:48 -29.22662 -53.40205 39030 ft 522 kts 44°
2026-05-04 19:49 -29.17620 -53.34233 39035 ft 522 kts 44°
2026-05-04 19:49 -29.12577 -53.28268 39036 ft 522 kts 44°
2026-05-04 19:50 -29.07565 -53.22349 39036 ft 521 kts 44°
2026-05-04 19:50 -29.02522 -53.16403 39008 ft 521 kts 44°
2026-05-04 19:51 -28.97484 -53.10471 39043 ft 519 kts 44°
2026-05-04 19:51 -28.92455 -53.04557 39045 ft 519 kts 44°
2026-05-04 19:52 -28.87428 -52.98656 39037 ft 518 kts 44°
2026-05-04 19:52 -28.82413 -52.92776 39050 ft 516 kts 44°
2026-05-04 19:53 -28.77446 -52.86962 39051 ft 515 kts 44°
2026-05-04 19:53 -28.72441 -52.81112 39058 ft 515 kts 44°
2026-05-04 19:54 -28.67441 -52.75277 39058 ft 515 kts 44°
2026-05-04 19:54 -28.62439 -52.69447 39055 ft 513 kts 44°
2026-05-04 19:55 -28.57465 -52.63658 39069 ft 511 kts 44°